Skagway, AK

5:31 PM AKDT on May 22, 2018 (GMT -0800)
Skagway

Weather History for PAGY - September, 2013

Change the Weather History Date:

Friday, September 27, 2013

  Actual Average Record
Temperature  
Mean Temperature 49 °F -  
Max Temperature 52 °F 51 °F 61 °F (2017)
Min Temperature 46 °F 40 °F 19 °F (1983)
Degree Days  
Heating Degree Days 16    
Moisture  
Dew Point 43 °F    
Average Humidity 80    
Maximum Humidity 93    
Minimum Humidity 69    
Precipitation  
Precipitation 0.06 in - - ()
Sea Level Pressure  
Sea Level Pressure 29.39 in    
Wind  
Wind Speed 11 mph (SSW)    
Max Wind Speed 18 mph    
Max Gust Speed 28 mph    
Visibility 10 miles    
Events Rain    
Averages and records for this station are not official NWS values.
T = Trace of Precipitation, MM = Missing Value Source: NWS Daily Summary

Daily Weather History Graph

Daily Weather History Graph

Search for Another Location

Airport or City:

Astronomy

Sep. 27, 2013 Rise Set
Actual Time 6:58 AM AKDT 6:44 PM AKDT
Civil Twilight 6:17 AM AKDT 7:25 PM AKDT
Nautical Twilight 5:28 AM AKDT 8:13 PM AKDT
Astronomical Twilight 4:37 AM AKDT 9:04 PM AKDT
Moon 11:39 PM AKDT (9/27) 3:44 PM AKDT (9/27)
Length of Visible Light 13h 07m
Length of Day
11h 46m
Last Quarter, 44% of the Moon is Illuminated
Sep 27
Last Quarter
Oct 4
New
Oct 11
First Quarter
Oct 18
Full
Oct 26
Last Quarter

Hourly Weather History & Observations

Time (AKDT) Temp. Dew Point Humidity Pressure Visibility Wind Dir Wind Speed Gust Speed Precip Events Conditions
12:53 AM 50.0 °F 43.0 °F 77% 29.60 in 10.0 mi SSW 15.0 mph - N/A   Overcast
1:53 AM 50.0 °F 43.0 °F 77% 29.60 in 10.0 mi SSW 16.1 mph - N/A   Overcast
2:53 AM 50.0 °F 43.0 °F 77% 29.59 in 10.0 mi SSW 13.8 mph - 0.01 in Rain Light Rain
3:53 AM 50.0 °F 42.1 °F 74% 29.55 in 10.0 mi SSW 17.3 mph 23.0 mph 0.00 in   Overcast
4:53 AM 50.0 °F 42.1 °F 74% 29.55 in 10.0 mi SSW 17.3 mph 27.6 mph N/A   Overcast
5:53 AM 50.0 °F 42.1 °F 74% 29.53 in 10.0 mi SSW 12.7 mph 24.2 mph 0.00 in Rain Light Rain
6:53 AM 50.0 °F 42.1 °F 74% 29.50 in 10.0 mi SSW 18.4 mph 24.2 mph 0.00 in   Overcast
7:53 AM 50.0 °F 42.1 °F 74% 29.50 in 10.0 mi Variable 6.9 mph 17.3 mph 0.00 in   Overcast
8:53 AM 50.0 °F 42.1 °F 74% 29.46 in 10.0 mi SSW 13.8 mph 21.9 mph 0.00 in   Overcast
9:53 AM 51.1 °F 42.1 °F 71% 29.45 in 10.0 mi South 8.1 mph 20.7 mph N/A   Overcast
10:53 AM 50.0 °F 42.1 °F 74% 29.42 in 10.0 mi South 10.4 mph 17.3 mph 0.01 in Rain Light Rain
11:53 AM 52.0 °F 42.1 °F 69% 29.41 in 10.0 mi SSW 12.7 mph 20.7 mph 0.00 in   Overcast
12:53 PM 51.1 °F 43.0 °F 74% 29.37 in 10.0 mi SSW 15.0 mph 23.0 mph 0.00 in   Overcast
1:53 PM 50.0 °F 44.1 °F 80% 29.37 in 10.0 mi SSW 12.7 mph - 0.00 in Rain Light Rain
2:53 PM 50.0 °F 44.1 °F 80% 29.34 in 10.0 mi Calm Calm - 0.02 in Rain Light Rain
3:53 PM 50.0 °F 44.1 °F 80% 29.33 in 10.0 mi Calm Calm - 0.00 in Rain Light Rain
4:53 PM 48.9 °F 44.1 °F 83% 29.31 in 10.0 mi Calm Calm - 0.01 in   Overcast
5:53 PM 48.9 °F 45.0 °F 86% 29.29 in 10.0 mi Calm Calm - N/A   Overcast
6:53 PM 48.0 °F 45.0 °F 89% 29.27 in 10.0 mi Calm Calm - 0.00 in Rain Light Rain
7:53 PM 46.9 °F 45.0 °F 93% 29.25 in 10.0 mi Calm Calm - 0.01 in   Overcast
8:53 PM 46.9 °F 44.1 °F 90% 29.22 in 10.0 mi Calm Calm - 0.00 in   Overcast
9:53 PM 46.9 °F 44.1 °F 90% 29.20 in 10.0 mi Calm Calm - N/A   Overcast
10:53 PM 46.0 °F 44.1 °F 93% 29.18 in 10.0 mi Calm Calm - N/A   Overcast
11:53 PM 46.0 °F 44.1 °F 93% 29.16 in 10.0 mi Calm Calm - N/A   Overcast